EW7714 Weather Reports


time (UTC)temp
C
wind
direction
speed
KPH
gust
KPH
rain 1hr
cm
rain 24hr
cm
rain mn
cm
humidity
%
barometer
mb
20260504023106 16 281 0.0 0.0 0.00 0.00 0.00 79 1018.5
20260504022004 16 281 0.0 0.0 0.00 0.00 0.00 77 1018.6
20260504021609 16 281 0.0 0.0 0.00 0.00 0.00 76 1018.5
20260504021004 16 281 0.0 0.0 0.00 0.00 0.00 73 1018.4
20260504020006 16 281 0.0 0.0 0.00 0.00 0.00 72 1018.3
20260504015004 17 281 0.0 1.6 0.00 0.00 0.00 72 1018.3
20260504014600 17 281 0.0 1.6 0.00 0.00 0.00 71 1018.2
20260504014005 17 281 1.6 6.4 0.00 0.00 0.00 70 1018.2
20260504013100 17 281 1.6 8.0 0.00 0.00 0.00 69 1018.0
20260504013004 17 300 0.0 3.2 0.00 0.00 0.00 69 1018.0
20260504012004 17 300 0.0 1.6 0.00 0.00 0.00 69 1017.9
20260504011559 18 300 0.0 3.2 0.00 0.00 0.00 70 1017.8
20260504011004 18 300 1.6 4.8 0.00 0.00 0.00 66 1017.8
20260504010100 18 319 0.0 3.2 0.00 0.00 0.00 67 1017.6
20260504010005 18 319 1.6 3.2 0.00 0.00 0.00 66 1017.7
20260504005004 19 320 0.0 4.8 0.00 0.00 0.00 65 1017.6
20260504004559 19 321 0.0 1.6 0.00 0.00 0.00 64 1017.6
20260504004004 20 321 0.0 3.2 0.00 0.00 0.00 62 1017.6
20260504003059 20 321 0.0 3.2 0.00 0.00 0.00 56 1017.3
20260504003005 20 321 0.0 0.0 0.00 0.00 0.00 56 1017.4
20260504002004 21 321 0.0 0.0 0.00 0.00 0.00 55 1017.3
20260504001559 21 321 0.0 0.0 0.00 0.00 0.00 53 1017.1
20260504001003 21 321 0.0 0.0 0.00 0.00 0.00 52 1017.1
20260504000137 21 321 0.0 0.0 0.00 0.00 0.00 52 1017.1
20260504000005 21 321 0.0 0.0 0.00 0.00 0.00 52 1017.1
20260503235004 21 321 0.0 1.6 0.00 0.00 0.00 52 1017.1
20260503234603 22 321 0.0 1.6 0.00 0.00 0.00 52 1017.1
20260503234004 22 321 0.0 1.6 0.00 0.00 0.00 50 1017.2
20260503233101 22 321 0.0 3.2 0.00 0.00 0.00 48 1017.2
20260503233005 22 321 0.0 3.2 0.00 0.00 0.00 47 1017.2
20260503232004 22 321 0.0 1.6 0.00 0.00 0.00 49 1017.4
20260503231559 22 321 0.0 1.6 0.00 0.00 0.00 45 1017.3
20260503231005 23 321 1.6 3.2 0.00 0.00 0.00 47 1017.4
20260503230100 23 321 0.0 4.8 0.00 0.00 0.00 43 1017.3
20260503230006 23 321 1.6 4.8 0.00 0.00 0.00 43 1017.4
20260503225004 23 319 1.6 3.2 0.00 0.00 0.00 44 1017.4
20260503224601 23 319 0.0 6.4 0.00 0.00 0.00 45 1017.3
20260503224004 23 319 1.6 6.4 0.00 0.00 0.00 43 1017.5
20260503223100 23 355 0.0 3.2 0.00 0.00 0.00 48 1017.3
20260503223004 23 355 0.0 3.2 0.00 0.00 0.00 48 1017.4
20260503221602 24 355 1.6 4.8 0.00 0.00 0.00 41 1017.4
20260503221004 24 341 1.6 4.8 0.00 0.00 0.00 40 1017.5
20260503220059 25 355 1.6 4.8 0.00 0.00 0.00 39 1017.5
20260503220004 25 360 1.6 4.8 0.00 0.00 0.00 38 1017.5
20260503215004 25 24 1.6 4.8 0.00 0.00 0.00 40 1017.6
20260503214600 25 24 0.0 9.7 0.00 0.00 0.00 40 1017.6
20260503214004 25 331 1.6 6.4 0.00 0.00 0.00 41 1017.6
20260503213059 25 319 1.6 6.4 0.00 0.00 0.00 40 1017.7
20260503211604 25 330 1.6 4.8 0.00 0.00 0.00 38 1017.7
20260503210059 25 271 1.6 6.4 0.00 0.00 0.00 39 1017.9
20260503210006 25 271 3.2 6.4 0.00 0.00 0.00 37 1018.0
20260503210002 25 271 3.2 6.4 0.00 0.00 0.00 37 1018.0
20260503205005 25 12 3.2 9.7 0.00 0.00 0.00 38 1018.1
20260503204601 25 12 3.2 9.7 0.00 0.00 0.00 37 1018.2
20260503203115 25 225 0.0 6.4 0.00 0.00 0.00 39 1018.3
20260503203005 25 225 3.2 6.4 0.00 0.00 0.00 38 1018.4
20260503202005 25 342 3.2 6.4 0.00 0.00 0.00 38 1018.7
20260503201601 25 347 3.2 6.4 0.00 0.00 0.00 36 1018.7
20260503201501 25 331 3.2 6.4 0.00 0.00 0.00 38 1018.7
20260503201004 25 317 3.2 6.4 0.00 0.00 0.00 41 1018.8
20260503200101 25 221 3.2 14.5 0.00 0.00 0.00 42 1018.9
20260503200005 25 221 3.2 14.5 0.00 0.00 0.00 39 1019.0
20260503195003 25 116 3.2 9.7 0.00 0.00 0.00 39 1019.2
20260503194603 26 113 1.6 9.7 0.00 0.00 0.00 36 1019.2
20260503194004 25 22 3.2 6.4 0.00 0.00 0.00 37 1019.3
20260503193100 25 5 3.2 9.7 0.00 0.00 0.00 39 1019.3
20260503193005 25 329 1.6 11.3 0.00 0.00 0.00 37 1019.3
20260503192004 25 86 3.2 11.3 0.00 0.00 0.00 39 1019.4
20260503191600 25 87 3.2 11.3 0.00 0.00 0.00 38 1019.5
20260503191003 25 102 3.2 8.0 0.00 0.00 0.00 37 1019.6
20260503190100 24 30 3.2 9.7 0.00 0.00 0.00 38 1019.9
20260503190006 24 48 3.2 9.7 0.00 0.00 0.00 40 1019.9
20260503190002 24 48 1.6 9.7 0.00 0.00 0.00 40 1019.9
20260503185004 25 321 3.2 8.0 0.00 0.00 0.00 37 1019.9
20260503184624 25 338 1.6 9.7 0.00 0.00 0.00 40 1020.0
20260503184501 25 26 1.6 9.7 0.00 0.00 0.00 38 1019.9
20260503184005 25 32 3.2 9.7 0.00 0.00 0.00 37 1020.0
20260503183104 25 148 1.6 12.9 0.00 0.00 0.00 37 1020.3
20260503183005 25 148 6.4 12.9 0.00 0.00 0.00 35 1020.3
20260503182006 25 16 4.8 9.7 0.00 0.00 0.00 34 1020.5
20260503181601 25 40 4.8 9.7 0.00 0.00 0.00 36 1020.5
20260503181005 23 84 3.2 6.4 0.00 0.00 0.00 37 1020.6
20260503180101 23 325 3.2 8.0 0.00 0.00 0.00 38 1020.7
20260503180006 23 49 3.2 8.0 0.00 0.00 0.00 39 1020.7
20260503180001 23 49 3.2 8.0 0.00 0.00 0.00 39 1020.7
20260503175004 23 31 3.2 8.0 0.00 0.00 0.00 41 1020.8
20260503174601 23 34 1.6 11.3 0.00 0.00 0.00 40 1020.8
20260503173101 23 13 1.6 4.8 0.00 0.00 0.00 39 1021.0
20260503173005 23 13 3.2 4.8 0.00 0.00 0.00 40 1021.0
20260503171613 22 215 1.6 11.3 0.00 0.00 0.00 38 1021.1
20260503171004 23 39 3.2 11.3 0.00 0.00 0.00 38 1021.2
20260503170107 22 303 1.6 6.4 0.00 0.00 0.00 39 1021.2
20260503131005 12 302 0.0 1.6 0.00 0.00 0.00 92 1021.0
20260503090120 7 283 0.0 0.0 0.00 0.00 0.00 93 1019.3
20260503081602 8 283 0.0 3.2 0.00 0.00 0.00 93 1019.1
20260503081004 8 283 0.0 3.2 0.00 0.00 0.00 93 1019.1
20260503080110 8 283 0.0 3.2 0.00 0.00 0.00 92 1019.0
20260503071612 8 283 0.0 0.0 0.00 0.00 0.00 90 1018.7
20260503071004 9 283 0.0 0.0 0.00 0.00 0.00 90 1018.7
20260503060103 10 283 0.0 0.0 0.00 0.00 0.00 88 1018.5
20260503055005 10 283 0.0 0.0 0.00 0.00 0.00 89 1018.5
20260503054607 10 283 0.0 0.0 0.00 0.00 0.00 89 1018.5
20260503054004 10 283 0.0 0.0 0.00 0.00 0.00 87 1018.5
20260503053100 10 283 0.0 0.0 0.00 0.00 0.00 87 1018.4
20260503053006 10 283 0.0 0.0 0.00 0.00 0.00 88 1018.4
20260503052004 11 283 0.0 0.0 0.00 0.00 0.00 88 1018.3
20260503051600 11 283 0.0 0.0 0.00 0.00 0.00 87 1018.3
20260503050100 11 283 0.0 0.0 0.00 0.00 0.00 87 1018.3
20260503050008 11 283 0.0 0.0 0.00 0.00 0.00 87 1018.2
20260503050005 11 283 0.0 0.0 0.00 0.00 0.00 87 1018.2
20260503045005 11 283 0.0 0.0 0.00 0.00 0.00 86 1018.4
20260503044503 11 283 0.0 0.0 0.00 0.00 0.00 85 1018.4
20260503044004 11 283 0.0 0.0 0.00 0.00 0.00 84 1018.4
20260503043006 11 283 0.0 0.0 0.00 0.00 0.00 86 1018.3
20260503043001 11 283 0.0 0.0 0.00 0.00 0.00 86 1018.3
20260503042005 11 283 0.0 0.0 0.00 0.00 0.00 84 1018.3
20260503041607 12 283 0.0 0.0 0.00 0.00 0.00 84 1018.3
20260503041005 12 283 0.0 0.0 0.00 0.00 0.00 86 1018.3
20260503040100 12 283 0.0 0.0 0.00 0.00 0.00 86 1018.2
20260503040007 12 283 0.0 0.0 0.00 0.00 0.00 86 1018.1
20260503040003 12 283 0.0 0.0 0.00 0.00 0.00 86 1018.1
20260503035004 12 283 0.0 0.0 0.00 0.00 0.00 86 1018.0
20260503034502 12 283 0.0 0.0 0.00 0.00 0.00 84 1018.0
20260503034005 12 283 0.0 0.0 0.00 0.00 0.00 85 1018.0
20260503033007 12 283 0.0 0.0 0.00 0.00 0.00 86 1017.9
20260503033001 12 283 0.0 0.0 0.00 0.00 0.00 86 1017.9
20260503031501 12 283 0.0 0.0 0.00 0.00 0.00 85 1017.7
20260503031004 12 283 0.0 0.0 0.00 0.00 0.00 85 1017.7
20260503030004 12 283 0.0 0.0 0.00 0.00 0.00 85 1017.6
20260503024501 12 283 0.0 0.0 0.00 0.00 0.00 85 1017.5
20260503024004 12 283 0.0 0.0 0.00 0.00 0.00 84 1017.5